CZ-6A DEB, 54617

Orbit data source: Space-Track

CZ-6A DEB, 54617 is space debris in SSO originally from a launch on Fri, 11 Nov 2022 UTC launched from the Taiyaun Space Center, China (TSC). Debris objects in space refer to the collection of defunct objects orbiting the Earth. Examples of debris include non-operational satellites, rocket bodies, and fragments generated from explosions, collisions, or faulty payload assembly.

Loading next visibility...
Identifier
54617, 2022-151NT
Orbit
SSO
Country
Flag of CNCN / PRC
Related business
Manufacturer
SAST
Mission
Spacecraft
Bus & Motor
Unknown
Mass
Unknown
Launch date (UTC)
2022-11-11 (3 years ago)
Launch vehicle
Unknown
Launch site
Taiyaun Space Center, China (TSC)
Object type
Payload
Rocket body
Debris
Shape & HBR
Unknown shape, 0.1 m
Radar Cross Section
Small (<0.1 m²)

Expand to show TLE details & history
Last TLE update: 1 day ago

TLE from 1 day ago
0 CZ-6A DEB
1 54617U 22151NT  25354.51441483  .00001242  00000-0  61130-3 0  9996
2 54617  98.8244   5.8546 0026646 102.5226 257.8933 14.19232242159259
Epoch: 2025-12-20T12:20Z
TLE epoch observation values (Epoch: 2025-12-20T12:20:45.441Z)
Latitude
0.00002°
Longitude
91.32514°
Altitude
834.937 km
Speed
7.433 km/s
True Right ascension
00h 23m 25s
True Declination
0° 00' 00"
Sunlit
Object was in daylight at epoch
Visualization orbit readout
Latitude
Unknown
Longitude
Unknown
Altitude
Unknown
Speed
Unknown
Apparent Right ascension
Unknown
Apparent Declination
Unknown
Sunlit
N/A
Visualization observer readout
Local Sidereal Time
21:36:09
Azimuth
Unknown
Elevation
Unknown
Doppler factor
Unknown
Orbital elements
Apogee altitude
844.309 km
Perigee altitude
805.922 km
Semi-major axis
7,203.253 km
Eccentricity
0.00266
Inclination
98.8244°
RAAN
5.8546°
Arg. of periapsis
102.5226°
True anomaly
257.59496°
Mean anomaly
257.8933°
Eccentric anomaly
257.74411°
Mean motion
3.55018 °/min
Orbital period
101.4 mins
BSTAR
0.0006113
Loading maneuver chart data...
Computing Atmospheric mass density...
Loading historical data...
Loading historical data...
Loading historical data...
Loading historical data...
Loading historical data...
Loading historical data...
Loading historical data...

Documentation

Showing up to 5 results
|